CAPE
1824 1822 1631 1581 1524 1285 1513 1446 1384 1205 1152 875 894 941 1045 1152 1028 983 1127 1064 1030 936 665 567 484 447 345 210 67 92 335 326
1809 1879 1894 2023 2064 1482 1296 1448 1143 881 744 428 394 437 550 651 606 831 971 903 809 659 507 497 391 403 318 205 127 121 221 116
1556 1809 1882 1702 1666 1988 1445 1360 1010 765 525 269 200 491 371 142 308 538 650 638 609 378 412 305 371 307 278 211 93 46 54 60
1466 1666 1577 1807 1667 1474 1953 1462 1006 784 770 420 436 333 362 232 244 282 497 498 346 301 268 226 251 202 102 13 5 1 10 24
1224 1432 1704 1457 1678 1191 1477 1466 1054 835 599 627 286 256 254 305 177 393 505 474 391 238 199 137 91 24 0 0 0 0 2 13
1113 1217 1269 1173 1220 1272 1531 1236 1186 763 597 385 428 313 256 217 99 148 228 525 326 154 103 41 10 0 0 0 0 0 0 3
920 963 1108 860 879 945 921 1256 680 616 377 315 178 377 283 201 152 177 269 161 146 120 81 36 7 0 0 0 0 0 0 3
691 794 747 847 778 742 409 782 440 528 202 133 193 109 148 142 136 261 98 153 75 66 76 3 7 0 0 0 0 0 0 4
526 571 636 663 379 326 295 472 543 159 75 59 87 87 84 113 197 103 103 125 55 58 49 0 6 8 0 0 0 0 1 3
408 274 500 562 509 499 83 254 464 81 26 49 70 91 65 73 102 90 104 66 54 52 27 4 17 9 0 4 0 0 2 3
290 388 539 609 567 304 173 468 64 136 13 16 26 22 30 66 185 78 67 57 40 20 21 39 10 7 0 0 0 1 2 8
293 425 564 630 544 228 291 37 14 35 6 69 22 31 47 65 91 60 12 20 30 3 12 42 0 0 0 0 2 1 2 7
192 281 569 645 399 166 30 31 8 2 8 11 5 14 48 34 6 24 32 34 23 5 25 35 0 4 0 2 5 3 9 7
63 198 588 583 303 71 19 32 11 6 17 16 6 16 16 27 16 17 23 38 49 10 12 24 0 0 1 3 3 2 9 10
84 288 667 465 245 26 0 18 3 15 40 14 4 6 20 22 22 18 26 46 35 4 4 6 0 0 0 0 7 12 3 6
127 471 554 390 227 50 0 2 15 26 23 24 4 7 73 6 12 30 17 23 30 15 21 3 0 0 0 0 0 0 0 0
115 471 471 358 191 62 1 13 28 17 8 19 10 3 18 12 7 10 19 26 3 6 7 13 0 0 0 0 0 0 0 0
113 441 414 342 186 87 4 3 3 20 6 0 5 15 4 11 13 7 28 4 2 1 6 5 0 0 2 0 0 0 5 39
15 364 413 292 171 47 11 0 1 23 3 0 0 9 3 31 24 9 3 4 6 16 21 0 0 0 0 0 11 43 86 105
5 297 377 266 153 13 10 13 1 30 1 14 2 2 9 6 30 14 54 54 70 18 0 0 0 0 0 0 28 73 125 126
CIN
-149 -127 -102 -65 -39 -38 -10 -11 -20 -21 -23 -84 -50 -34 -37 -45 -31 -24 -12 -30 -8 -2 -19 -6 -4 -6 -4 -7 -25 -25 -0 -0
-140 -111 -84 -30 -2 -21 -14 -5 -18 -24 -28 -48 -155 -179 -115 -61 -52 -37 -87 -12 -8 -10 -17 -7 -6 -1 -1 -2 -7 -15 -3 -19
-171 -112 -79 -64 -35 -0 -2 -2 -9 -11 -33 -47 -148 -70 -67 -123 -90 -50 -68 -35 -17 -34 -16 -17 -5 -1 -1 -1 -14 -25 -28 -32
-182 -125 -116 -60 -37 -21 -0 -0 -5 -20 -11 -46 -32 -53 -74 -80 -45 -63 -48 -24 -26 -39 -24 -12 -0 -1 -5 -87 -96 -53 -0 -0
-233 -158 -95 -91 -35 -42 -1 -0 -0 -0 -1 -3 -22 -33 -67 -39 -49 -18 -17 -2 -0 -7 -2 -1 -1 -28 -0 -0 -0 -0 -0 -0
-246 -193 -153 -135 -79 -37 -1 -0 -0 -0 -0 -0 -4 -4 -4 -14 -41 -28 -15 -3 -0 -1 -1 -13 -34 -0 -0 -0 -0 -0 -0 -0
-289 -253 -165 -182 -136 -68 -30 -0 -0 -0 -0 -3 -11 -0 -0 -6 -6 -19 -0 -5 -14 -10 -2 -8 -6 -0 -0 -0 -0 -0 -0 -0
-350 -302 -257 -165 -142 -103 -102 -2 -2 -0 -17 -48 -14 -0 -15 -29 -12 -0 -6 -2 -18 -35 -20 -3 -0 -0 -0 -0 -0 -0 -0 -0
-423 -359 -290 -204 -131 -118 -117 -19 -0 -12 -22 -0 -0 -0 -0 -14 -5 -10 -16 -8 -32 -26 -6 -0 -0 -1 -0 -0 -0 -0 -0 -0
-452 -332 -305 -225 -151 -142 -132 -52 -0 -12 -0 -0 -0 -0 -0 -0 -3 -11 -15 -26 -33 -39 -20 -11 -12 -1 -0 -7 -0 -0 -0 -0
-502 -420 -285 -215 -146 -143 -158 -39 -73 -27 -7 -0 -0 -11 -6 -0 -0 -15 -27 -24 -18 -48 -37 -24 -14 -0 -0 -0 -0 -0 -0 -0
-507 -434 -303 -208 -155 -200 -129 -54 -0 -0 -23 -11 -20 -10 -0 -0 -2 -4 -21 -28 -12 -40 -36 -14 -0 -0 -0 -0 -0 -0 -0 -0
-568 -469 -325 -202 -179 -92 -233 -188 -1 -0 -0 -0 -0 -3 -0 -0 -0 -8 -6 -20 -15 -22 -46 -15 -0 -0 -0 -0 -0 -0 -0 -0
-648 -452 -313 -198 -136 -133 -187 -0 -0 -1 -0 -1 -0 -4 -3 -0 -0 -0 -8 -2 -4 -12 -42 -20 -0 -0 -5 -0 -0 -0 -0 -0
-603 -441 -291 -214 -113 -63 -0 -0 -0 -0 -0 -0 -0 -6 -1 -0 -0 -0 -10 -0 -7 -1 -36 -5 -0 -0 -0 -0 -0 -0 -0 -0
-531 -374 -273 -198 -110 -55 -0 -0 -0 -0 -0 -0 -1 -0 -3 -1 -1 -0 -0 -2 -3 -2 -18 -4 -0 -0 -0 -0 -0 -0 -0 -20
-447 -311 -253 -154 -94 -54 -0 -185 -0 -6 -4 -3 -0 -0 -1 -0 -0 -0 -2 -0 -0 -0 -0 -0 -0 -0 -0 -0 -0 -0 -0 -0
-436 -312 -209 -133 -90 -46 -0 -0 -0 -0 -0 -0 -0 -0 -0 -0 -0 -0 -0 -5 -0 -0 -4 -1 -0 -0 -93 -0 -0 -0 -24 -43
-492 -296 -190 -126 -77 -20 -0 -0 -0 -0 -0 -0 -0 -0 -0 -0 -0 -0 -0 -0 -0 -1 -0 -0 -0 -0 -0 -0 -47 -51 -60 -66
-455 -296 -168 -102 -66 -0 -0 -0 -0 -0 -0 -0 -0 -0 -0 -0 -2 -0 -0 -0 -0 -0 -0 -0 -0 -0 -0 -0 -67 -53 -62 -51
Wind_Speed
29 30 31 30 28 30 32 33 33 32 35 38 37 33 32 32 32 32 29 33 34 28 23 28 24 27 26 27 nan nan 24 19
26 28 32 31 28 29 32 34 31 35 36 33 31 31 31 35 27 26 37 34 25 17 20 27 27 29 25 28 30 20 18 22
25 27 30 33 30 26 30 35 34 36 34 29 24 23 27 30 24 20 31 28 24 17 18 25 27 28 27 28 nan nan nan nan
25 27 29 32 30 30 27 31 29 30 32 28 25 27 25 23 17 16 27 27 25 23 23 23 20 22 23 nan nan nan nan nan
28 28 28 32 32 31 29 28 28 25 30 27 22 23 22 23 20 13 16 27 24 21 25 22 nan nan nan nan nan nan nan nan
25 26 28 30 30 32 32 30 31 26 26 28 21 19 22 19 nan 22 19 24 24 27 24 nan nan nan nan nan nan nan nan nan
23 27 27 29 30 31 32 32 32 30 26 22 20 20 20 21 19 22 22 27 29 25 nan nan nan nan nan nan nan nan nan nan
26 26 29 30 27 31 32 34 30 27 23 19 22 18 21 20 21 23 nan 29 nan nan nan nan nan nan nan nan nan nan nan nan
27 29 32 32 30 30 32 32 29 22 nan nan nan nan nan 28 26 25 22 26 nan nan nan nan nan nan nan nan nan nan nan nan
28 29 34 33 32 29 nan 31 27 nan nan nan nan nan nan nan 26 nan 18 nan nan nan nan nan nan nan nan nan nan nan nan nan
32 32 34 34 33 30 30 30 nan 22 nan nan nan nan nan nan 25 nan nan nan nan nan nan nan nan nan nan nan nan nan nan nan
33 31 34 37 33 31 29 nan nan nan nan nan nan nan nan nan nan nan nan nan nan nan nan nan nan nan nan nan nan nan nan nan
33 35 37 37 36 31 nan nan nan nan nan nan nan nan nan nan nan nan nan nan nan nan nan nan nan nan nan nan nan nan nan nan
nan 38 41 40 40 nan nan nan nan nan nan nan nan nan nan nan nan nan nan nan nan nan nan nan nan nan nan nan nan nan nan nan
nan 37 40 43 39 nan nan nan nan nan nan nan nan nan nan nan nan nan nan nan nan nan nan nan nan nan nan nan nan nan nan nan
27 32 38 40 41 nan nan nan nan nan nan nan nan nan nan nan nan nan nan nan nan nan nan nan nan nan nan nan nan nan nan nan
29 28 34 37 40 nan nan nan nan nan nan nan nan nan nan nan nan nan nan nan nan nan nan nan nan nan nan nan nan nan nan nan
26 27 30 34 35 nan nan nan nan nan nan nan nan nan nan nan nan nan nan nan nan nan nan nan nan nan nan nan nan nan nan nan
nan 29 32 33 30 nan nan nan nan nan nan nan nan nan nan nan nan nan nan nan nan nan nan nan nan nan nan nan nan nan nan 37
nan 31 35 36 31 nan nan nan nan nan nan nan nan nan nan nan nan nan nan nan nan nan nan nan nan nan nan nan nan nan 30 32
Wind_Direction
325 327 327 320 316 319 318 328 336 333 320 319 324 292 294 284 294 273 255 271 269 262 241 240 240 237 239 243 nan nan 261 237
324 326 325 326 324 318 317 327 322 326 325 320 323 311 291 278 270 267 272 283 287 250 237 238 235 235 236 240 248 245 236 246
327 328 328 327 321 322 320 319 325 326 327 322 307 317 296 291 282 281 275 287 277 286 244 236 233 231 230 237 nan nan nan nan
333 330 329 325 320 318 326 321 325 324 330 324 303 312 301 281 257 261 283 275 285 277 246 243 243 223 220 nan nan nan nan nan
333 329 330 323 320 312 314 316 321 319 327 318 303 300 290 265 233 238 238 260 250 248 239 219 nan nan nan nan nan nan nan nan
331 328 325 321 313 311 313 315 318 318 317 312 291 294 297 265 nan 241 230 236 246 242 234 nan nan nan nan nan nan nan nan nan
330 326 323 310 310 310 314 316 316 313 312 303 289 298 301 269 258 234 242 245 242 229 nan nan nan nan nan nan nan nan nan nan
323 324 316 309 309 314 313 313 314 311 308 300 298 294 291 299 266 254 nan 249 nan nan nan nan nan nan nan nan nan nan nan nan
322 320 311 310 310 312 310 309 307 300 nan nan nan nan nan 310 274 262 241 237 nan nan nan nan nan nan nan nan nan nan nan nan
313 309 310 307 304 310 nan 306 305 nan nan nan nan nan nan nan 278 nan 235 nan nan nan nan nan nan nan nan nan nan nan nan nan
312 312 312 306 301 301 302 306 nan 301 nan nan nan nan nan nan 275 nan nan nan nan nan nan nan nan nan nan nan nan nan nan nan
305 306 307 304 295 295 296 nan nan nan nan nan nan nan nan nan nan nan nan nan nan nan nan nan nan nan nan nan nan nan nan nan
301 306 306 300 292 293 nan nan nan nan nan nan nan nan nan nan nan nan nan nan nan nan nan nan nan nan nan nan nan nan nan nan
nan 303 300 301 293 nan nan nan nan nan nan nan nan nan nan nan nan nan nan nan nan nan nan nan nan nan nan nan nan nan nan nan
nan 297 296 298 297 nan nan nan nan nan nan nan nan nan nan nan nan nan nan nan nan nan nan nan nan nan nan nan nan nan nan nan
279 284 290 292 295 nan nan nan nan nan nan nan nan nan nan nan nan nan nan nan nan nan nan nan nan nan nan nan nan nan nan nan
265 278 283 292 300 nan nan nan nan nan nan nan nan nan nan nan nan nan nan nan nan nan nan nan nan nan nan nan nan nan nan nan
262 274 278 283 297 nan nan nan nan nan nan nan nan nan nan nan nan nan nan nan nan nan nan nan nan nan nan nan nan nan nan nan
nan 265 269 275 291 nan nan nan nan nan nan nan nan nan nan nan nan nan nan nan nan nan nan nan nan nan nan nan nan nan nan 247
nan 262 263 267 279 nan nan nan nan nan nan nan nan nan nan nan nan nan nan nan nan nan nan nan nan nan nan nan nan nan 250 253